Location: Perryvale
(54.4667°N, 113.3833°W)
Time: 20:25:48
(UTC+00:00)

SR - Pass Details

Date: 21 May 2024
Orbit: 580 x 858 km, 66.7° (Epoch: 19 June)

Event Time Altitude Azimuth Distance (km) Brightness Sun altitude
Rises 10:01:57 0° 316° (NW) 2,914 ? -8.5°
Reaches altitude 10° 10:04:18 10° 312° (NW) 1,972 ? -8.3°
Maximum altitude 10:08:35 54° 236° (SW) 719 ? -7.9°
Drops below altitude 10° 10:12:43 10° 159° (SSE) 1,896 ? -7.5°
Sets 10:14:56 0° 154° (SSE) 2,789 ? -7.3°
